1498496400.89,40815,21.94,73992.8,5.93,-21.57,-14.05,0,*7B
1498496402.09,40816,21.88,73994.0,5.91,-21.47,-13.69,0,*76
1498496403.29,40817,21.88,73992.3,5.91,-21.39,-13.51,0,*75
1498496404.55,40818,21.88,73992.5,5.89,-21.13,-13.29,0,*74
1498496405.81,40819,21.94,73994.0,5.93,-20.99,-13.19,0,*7E
1498496407.02,40820,21.88,73986.8,5.91,-20.93,-13.11,0,*74
1498496408.25,40821,21.88,73988.0,5.91,-20.69,-12.79,0,*7F
1498496409.51,40822,21.94,73992.3,5.91,-20.53,-12.61,0,*7C
1498496410.74,40823,21.94,73988.0,5.91,-20.39,-12.53,0,*70
1498496411.94,40824,21.88,73990.3,5.91,-20.29,-12.47,0,*73
1498496413.2,40825,21.88,73988.8,5.91,-20.15,-12.35,0,*78
1498496414.41,40826,21.88,73988.5,5.91,-19.91,-12.21,0,*78
1498496415.66,40827,21.94,73990.5,5.91,-19.85,-12.11,0,*7F
1498496416.91,40828,21.88,73986.3,5.89,-19.91,-12.11,0,*7C
1498496418.15,40829,21.88,73982.8,5.91,-19.75,-12.11,0,*7E
1498496419.38,40830,21.88,73986.3,5.91,-19.71,-11.97,0,*7F
1498496420.65,40831,21.88,73982.5,5.91,-19.61,-11.93,0,*7B
1498496421.88,40832,21.88,73986.0,5.91,-19.71,-11.89,0,*72
1498496423.15,40833,21.88,73978.5,5.91,-19.57,-11.63,0,*73
1498496424.38,40834,21.88,73980.8,5.91,-19.47,-11.51,0,*74
1498496425.61,40835,21.88,73988.0,5.91,-19.47,-11.51,0,*75
1498496426.88,40836,21.94,73992.3,5.91,-19.57,-11.37,0,*77
1498496428.09,40837,21.94,73996.8,5.91,-19.37,-10.97,0,*7B
1498496429.3,40838,21.88,73994.5,5.91,-19.37,-10.85,0,*77
1498496430.54,40839,21.88,73996.8,5.91,-19.37,-10.71,0,*7D
1498496431.78,40840,21.88,73994.8,5.91,-19.27,-10.57,0,*76
1498496433.03,40841,21.94,73994.5,5.91,-19.37,-10.41,0,*71
1498496434.28,40842,21.88,73990.3,5.91,-19.27,-10.19,0,*7E
1498496435.49,40843,21.88,73986.8,5.91,-19.13,-9.89,0,*49
1498496436.74,40844,21.94,73988.5,5.91,-18.93,-9.57,0,*44
1498496437.97,40845,21.88,73988.0,5.91,-18.69,-9.37,0,*46
1498496439.19,40846,21.88,73994.0,5.91,-18.55,-9.19,0,*46
1498496440.4,40847,21.88,73990.3,5.91,-18.41,-9.27,0,*4F
1498496441.62,40848,21.94,73996.0,5.91,-18.31,-9.31,0,*40
1498496442.83,40849,21.88,73994.8,5.91,-18.07,-9.27,0,*43
1498496444.05,40850,21.88,73990.8,5.91,-18.17,-9.37,0,*4B
1498496445.31,40851,21.88,73992.0,5.91,-18.01,-9.37,0,*4D
1498496446.53,40852,21.88,73996.3,5.91,-17.59,-9.19,0,*40
1498496447.79,40853,21.88,73998.5,5.91,-17.45,-9.37,0,*40
1498496449.05,40854,21.88,73996.5,5.91,-17.45,-9.49,0,*4E
1498496450.3,40855,21.88,73994.5,5.91,-17.25,-9.57,0,*46
1498496451.55,40856,21.88,73996.8,5.91,-17.17,-9.83,0,*4D
1498496452.81,40857,21.88,73990.3,5.91,-17.17,-9.83,0,*4C
1498496454.04,40858,21.94,73992.5,5.91,-17.03,-9.97,0,*43
1498496455.3,40859,21.88,73992.8,5.89,-17.07,-10.31,0,*7B
1498496456.53,40860,21.88,73994.0,5.91,-17.11,-10.57,0,*7F
1498496457.79,40861,21.88,73996.3,5.91,-17.03,-10.71,0,*79
1498496459.02,40862,21.88,73994.0,5.91,-17.11,-10.93,0,*75
1498496460.3,40863,21.88,73990.5,5.89,-17.07,-11.07,0,*76
1498496461.58,40864,21.94,73994.0,5.89,-17.07,-11.07,0,*71
1498496462.86,40865,21.94,73992.8,5.89,-17.17,-11.33,0,*76
1498496464.1,40866,21.94,73982.8,5.89,-17.31,-11.33,0,*71
1498496465.34,40867,21.88,73974.0,5.89,-17.35,-11.41,0,*71
1498496466.58,40868,21.88,73982.5,5.85,-17.35,-11.33,0,*77
1498496467.83,40869,21.88,73990.3,5.83,-17.25,-11.07,0,*76
1498496469.08,40870,21.88,73992.3,5.85,-17.35,-11.07,0,*79
1498496470.3,40871,21.88,73990.5,5.85,-17.87,-11.19,0,*7E
1498496471.54,40872,21.88,73992.3,5.85,-17.87,-11.07,0,*72
1498496472.77,40873,21.88,73990.5,5.85,-17.87,-10.93,0,*7F
1498496474.04,40874,21.94,73992.8,5.85,-17.97,-10.79,0,*7D
1498496475.3,40875,21.88,73992.3,5.83,-17.97,-10.67,0,*75
1498496476.55,40876,21.88,73994.0,5.85,-17.97,-10.53,0,*77
1498496477.77,40877,21.88,73994.8,5.83,-18.01,-10.49,0,*7B
1498496478.99,40878,21.88,73994.3,5.85,-18.11,-10.49,0,*73
1498496480.24,40879,21.88,73994.0,5.85,-17.97,-10.19,0,*76
1498496481.47,40880,21.88,73990.8,5.85,-18.17,-10.19,0,*77
1498496482.69,40881,21.88,73994.5,5.85,-18.11,-10.19,0,*70
1498496483.88,40882,21.88,73990.0,5.83,-18.11,-9.97,0,*4B
1498496485.07,40883,21.94,73992.0,5.83,-18.11,-9.97,0,*4A
1498496486.28,40884,21.88,73990.3,5.85,-18.11,-9.97,0,*4B
1498496487.51,40885,21.88,73994.0,5.83,-18.31,-10.09,0,*71
1498496488.71,40886,21.94,73994.5,5.83,-18.17,-10.27,0,*7A
1498496489.93,40887,21.88,73988.3,5.85,-18.11,-10.05,0,*7B
1498496491.15,40888,21.94,73990.3,5.83,-17.97,-9.97,0,*40
1498496492.39,40889,21.88,73988.5,5.85,-17.97,-9.93,0,*43
1498496493.61,40890,21.88,73990.5,5.83,-17.59,-9.67,0,*44
1498496494.86,40891,21.94,73992.0,5.83,-17.25,-9.45,0,*4E
1498496496.11,40892,21.88,73992.0,5.83,-17.07,-9.53,0,*4A
1498496497.35,40893,21.88,73992.3,5.85,-16.83,-9.45,0,*47
1498496498.59,40894,21.88,73992.3,5.85,-16.79,-9.53,0,*42
1498496499.81,40895,21.88,73996.3,5.83,-16.69,-9.79,0,*4C
1498496501.0,40896,21.88,74000.0,5.83,-16.83,-9.93,0,*4F
1498496502.25,40897,21.94,74000.3,5.85,-17.21,-10.49,0,*7E
1498496503.5,40898,21.94,73998.0,5.85,-17.35,-10.63,0,*7C
1498496504.73,40899,21.88,73998.8,5.83,-17.49,-10.41,0,*70
1498496505.93,40900,21.88,73992.5,5.83,-17.49,-10.49,0,*79
1498496507.15,40901,21.94,73996.5,5.85,-17.73,-10.53,0,*7C
1498496508.37,40902,21.88,73996.5,5.85,-17.87,-10.49,0,*7F
1498496509.62,40903,21.94,74000.5,5.83,-18.01,-10.41,0,*71
1498496510.85,40904,21.88,73996.0,5.83,-18.01,-10.27,0,*76
1498496512.05,40905,21.88,73992.5,5.83,-17.83,-9.97,0,*41
1498496513.26,40906,21.88,73990.3,5.83,-17.73,-9.83,0,*48
1498496514.45,40907,21.88,73994.3,5.83,-17.69,-9.67,0,*48
1498496515.65,40908,21.88,73992.8,5.83,-17.73,-9.67,0,*4C
1498496516.89,40909,21.88,73992.5,5.83,-17.59,-9.45,0,*45
1498496518.14,40910,21.94,73998.3,5.83,-17.41,-9.53,0,*43
1498496519.4,40911,21.88,73988.5,5.85,-17.21,-9.37,0,*40
1498496520.62,40912,21.94,73988.8,5.83,-16.97,-9.15,0,*49
1498496521.88,40913,21.88,73986.8,5.85,-16.69,-9.11,0,*4B
1498496523.1,40914,21.94,73990.3,5.83,-16.37,-9.11,0,*41
1498496524.34,40915,21.88,73988.0,5.85,-16.31,-9.01,0,*41
1498496525.6,40916,21.88,73990.5,5.85,-16.23,-9.15,0,*44
1498496526.84,40917,21.88,73992.3,5.83,-16.23,-9.41,0,*42
1498496528.1,40918,21.88,73990.5,5.85,-16.17,-9.57,0,*4B
1498496529.31,40919,21.88,73990.5,5.85,-16.03,-9.79,0,*43
1498496530.55,40920,21.94,73992.8,5.85,-15.89,-10.05,0,*7B
1498496531.8,40921,21.88,73992.3,5.85,-15.81,-10.19,0,*7F
1498496533.02,40922,21.88,73994.5,5.85,-15.63,-10.49,0,*75
1498496534.26,40923,21.88,73994.0,5.85,-15.49,-10.75,0,*73
1498496535.48,40924,21.88,73992.0,5.85,-15.49,-10.89,0,*77
1498496536.69,40925,21.88,73992.8,5.85,-15.49,-11.23,0,*77
1498496537.96,40926,21.88,73998.8,5.85,-15.43,-11.37,0,*7B
1498496539.2,40927,21.88,73996.5,5.85,-15.49,-11.77,0,*74
1498496540.42,40928,21.88,73996.5,5.85,-15.63,-12.03,0,*73
1498496541.63,40929,21.88,73998.5,5.85,-15.67,-12.21,0,*76
1498496542.88,40930,21.88,73998.3,5.85,-15.95,-12.57,0,*72
1498496544.15,40931,21.88,73998.8,5.85,-16.17,-12.75,0,*7A
1498496545.4,40932,21.88,73996.5,5.89,-16.17,-12.89,0,*76
1498496546.66,40933,21.88,74000.8,5.89,-16.41,-13.01,0,*75
1498496547.88,40934,21.88,73996.3,5.89,-16.55,-13.15,0,*72
1498496549.11,40935,21.88,73994.0,5.89,-16.89,-13.43,0,*71
1498496550.32,40936,21.88,73992.0,5.85,-16.97,-13.47,0,*75
1498496551.56,40937,21.88,73990.8,5.85,-17.21,-13.55,0,*7B
1498496552.83,40938,21.88,73986.8,5.85,-17.25,-13.61,0,*77
1498496554.1,40939,21.88,73984.0,5.85,-17.41,-13.61,0,*74
1498496555.31,40940,21.94,73986.3,5.85,-17.73,-13.93,0,*76
1498496556.53,40941,21.88,73986.3,5.85,-18.17,-14.15,0,*73
1498496557.76,40942,21.88,73986.8,5.89,-18.21,-14.23,0,*7C
1498496558.99,40943,21.88,73988.8,5.89,-18.41,-14.15,0,*7E
1498496560.24,40944,21.94,73994.5,5.89,-18.55,-14.23,0,*79
1498496561.49,40945,21.88,73990.3,5.89,-18.59,-14.15,0,*71
1498496562.72,40946,21.88,73988.3,5.89,-18.73,-14.15,0,*7A
1498496563.96,40947,21.88,73990.0,5.91,-18.69,-14.05,0,*78
1498496565.19,40948,21.94,73988.5,5.89,-18.83,-14.15,0,*7B
1498496566.42,40949,21.94,73988.0,5.89,-19.17,-14.23,0,*73
1498496567.69,40950,21.88,73984.3,5.89,-19.27,-14.23,0,*78
1498496568.92,40951,21.88,73986.8,5.89,-19.17,-14.11,0,*7B
1498496570.18,40952,21.88,73986.0,5.89,-19.17,-13.97,0,*71
1498496571.43,40953,21.88,73984.5,5.89,-19.47,-14.01,0,*7D
1498496572.69,40954,21.94,73986.5,5.89,-19.65,-14.23,0,*7A
1498496573.93,40955,21.94,73988.5,5.85,-19.65,-14.15,0,*72
1498496575.16,40956,21.88,73986.5,5.89,-19.47,-14.11,0,*79
1498496576.44,40957,21.94,73988.0,5.89,-19.41,-14.01,0,*7F
1498496577.72,40958,21.88,73986.3,5.89,-19.41,-13.97,0,*78
1498496578.99,40959,21.88,73986.8,5.91,-19.27,-13.97,0,*70
1498496580.22,40960,21.88,73984.5,5.91,-19.07,-13.97,0,*78
1498496581.48,40961,21.88,73984.0,5.89,-19.03,-13.97,0,*74
1498496582.73,40962,21.88,73988.0,5.89,-19.03,-14.01,0,*7F
1498496583.99,40963,21.88,73988.3,5.89,-19.31,-14.37,0,*7A
1498496585.2,40964,21.88,73994.8,5.91,-19.13,-14.33,0,*70
1498496586.46,40965,21.88,73994.5,5.89,-19.17,-14.55,0,*7C
1498496587.74,40966,21.88,73986.0,5.89,-19.41,-14.83,0,*77
1498496589.0,40967,21.88,73982.5,5.89,-19.13,-14.75,0,*78
1498496590.25,40968,21.88,73984.0,5.89,-19.03,-14.83,0,*7F
1498496591.51,40969,21.88,73988.0,5.89,-19.13,-15.01,0,*74
1498496592.74,40970,21.88,73990.5,5.89,-19.03,-15.15,0,*78
1498496594.0,40971,21.88,73990.5,5.89,-19.03,-15.39,0,*77
1498496595.26,40972,21.88,73988.5,5.89,-19.17,-15.57,0,*79
1498496596.5,40973,21.88,73988.8,5.89,-19.17,-15.63,0,*7F
1498496597.71,40974,21.88,73988.5,5.91,-19.17,-15.75,0,*76
1498496599.0,40975,21.88,73986.8,5.89,-19.27,-15.85,0,*72
1498496600.27,40976,21.88,73988.8,5.89,-19.27,-15.99,0,*7C
1498496601.52,40977,21.88,73986.8,5.89,-19.31,-16.03,0,*7A
1498496602.81,40978,21.88,73988.0,5.89,-19.31,-16.13,0,*74
1498496604.09,40979,21.88,73988.5,5.89,-19.31,-16.17,0,*71
1498496605.38,40980,21.88,73990.0,5.89,-19.27,-16.13,0,*74
1498496606.65,40981,21.88,73992.3,5.89,-19.17,-16.17,0,*72
1498496607.94,40982,21.88,73992.3,5.89,-19.27,-16.13,0,*76
1498496609.21,40983,21.88,73990.3,5.89,-19.41,-16.13,0,*77
1498496610.44,40984,21.88,73990.0,5.89,-19.51,-15.99,0,*70
1498496611.67,40985,21.88,73994.0,5.89,-19.51,-15.99,0,*71
1498496612.92,40986,21.88,73998.8,5.89,-19.81,-15.99,0,*7F
1498496614.19,40987,21.88,73992.5,5.89,-20.35,-16.17,0,*7E
1498496615.44,40988,21.88,73990.0,5.85,-20.59,-16.17,0,*77
1498496616.66,40989,21.94,73994.5,5.85,-20.73,-16.03,0,*7B
1498496617.9,40990,21.88,73988.8,5.85,-21.09,-15.89,0,*7E
1498496619.1,40991,21.88,73986.0,5.83,-21.17,-15.75,0,*75
1498496620.32,40992,21.88,73986.0,5.83,-20.79,-15.07,0,*7A
1498496621.57,40993,21.88,73990.3,5.83,-20.79,-14.55,0,*7D
1498496622.77,40994,21.88,73990.0,5.83,-20.59,-14.15,0,*7C
1498496623.97,40995,21.88,73990.0,5.83,-20.59,-14.15,0,*7D
1498496625.16,40996,21.88,73986.0,5.83,-20.25,-13.69,0,*79
1498496626.36,40997,21.88,73990.5,5.83,-19.95,-13.55,0,*76
1498496627.58,40998,21.88,73992.3,5.83,-19.85,-13.55,0,*78
1498496628.77,40999,21.88,73992.3,5.83,-19.99,-13.93,0,*7E
1498496629.97,41000,21.88,73988.5,5.83,-19.95,-13.69,0,*7F
1498496631.16,41001,21.88,73984.8,5.83,-19.99,-13.69,0,*72
1498496632.38,41002,21.88,73986.8,5.81,-19.99,-13.51,0,*78
1498496633.64,41003,21.88,73986.0,5.81,-19.85,-13.37,0,*74
1498496634.91,41004,21.88,73990.3,5.81,-19.85,-13.33,0,*77
1498496636.15,41005,21.88,73984.8,5.81,-19.91,-13.37,0,*77
1498496637.39,41006,21.88,73986.8,5.81,-19.91,-13.37,0,*74
1498496638.62,41007,21.94,73992.5,5.81,-20.05,-13.37,0,*72
1498496639.88,41008,21.88,73990.3,5.81,-20.15,-13.33,0,*78
1498496641.1,41009,21.94,73996.3,5.81,-19.99,-13.23,0,*76
1498496642.33,41010,21.88,73988.5,5.81,-19.99,-13.19,0,*77
1498496643.55,41011,21.88,73994.5,5.81,-19.99,-13.19,0,*76
1498496644.78,41012,21.88,73990.3,5.81,-19.99,-13.19,0,*75
1498496645.97,41013,21.88,73990.3,5.79,-19.99,-13.07,0,*7C
1498496647.22,41014,21.88,73988.5,5.79,-19.85,-12.79,0,*7E
1498496648.47,41015,21.88,73992.0,5.81,-19.91,-12.75,0,*71
1498496649.7,41016,21.88,73988.8,5.81,-19.91,-12.65,0,*73
1498496650.94,41017,21.94,73994.0,5.81,-19.91,-12.61,0,*76
1498496652.16,41018,21.88,73988.8,5.79,-19.85,-12.39,0,*76
1498496653.36,41019,21.88,73988.5,5.79,-19.71,-12.25,0,*71
1498496654.58,41020,21.88,73990.3,5.81,-19.75,-12.03,0,*7C
1498496655.83,41021,21.88,73988.5,5.79,-19.57,-11.81,0,*73
1498496657.07,41022,21.88,73984.8,5.79,-19.41,-11.55,0,*7E
1498496658.3,41023,21.88,73988.5,5.79,-19.13,-11.29,0,*73
1498496659.51,41024,21.88,73986.8,5.81,-18.83,-10.85,0,*7C
1498496660.74,41025,21.88,73988.5,5.81,-18.69,-10.57,0,*76
1498496661.96,41026,21.88,73988.5,5.81,-18.69,-10.31,0,*75
1498496663.19,41027,21.88,73992.3,5.79,-18.55,-10.01,0,*7F
1498496664.4,41028,21.88,73990.3,5.81,-18.45,-9.71,0,*49
1498496665.67,41029,21.88,73994.5,5.81,-18.31,-9.45,0,*4C
1498496666.91,41030,21.88,73990.3,5.81,-18.17,-9.15,0,*45
1498496668.1,41031,21.88,73990.8,5.79,-17.73,-8.89,0,*4A
1498496669.34,41032,21.88,73988.0,5.81,-17.55,-8.89,0,*4A
1498496670.54,41033,21.88,73988.8,5.79,-17.11,-8.67,0,*4C
1498496671.75,41034,21.88,73992.5,5.81,-16.41,-8.55,0,*49
1498496672.99,41035,21.88,73992.3,5.81,-16.09,-8.75,0,*46
1498496674.17,41036,21.88,73988.3,5.79,-15.67,-8.67,0,*4A
1498496675.35,41037,21.88,73990.0,5.79,-15.25,-8.55,0,*4C
1498496676.55,41038,21.88,73988.0,5.81,-15.07,-8.55,0,*44
1498496677.77,41039,21.88,73990.0,5.81,-14.93,-8.55,0,*49
1498496679.04,41040,21.88,73990.0,5.81,-14.83,-8.51,0,*42
1498496680.26,41041,21.94,73994.3,5.81,-14.93,-8.55,0,*46
1498496681.5,41042,21.88,73992.5,5.79,-14.75,-8.11,0,*4A
1498496682.73,41043,21.88,73988.5,5.81,-14.65,-7.65,0,*41
1498496683.99,41044,21.88,73990.3,5.81,-14.75,-7.31,0,*46
1498496685.18,41045,21.88,73990.0,5.79,-14.65,-6.73,0,*46
1498496686.39,41046,21.88,73988.0,5.81,-14.61,-6.35,0,*44
1498496687.63,41047,21.88,73988.5,5.81,-14.37,-5.81,0,*4A
1498496688.85,41048,21.88,73988.0,5.81,-14.11,-5.43,0,*4F
1498496690.1,41049,21.88,73996.0,5.79,-13.83,-5.03,0,*41
1498496691.32,41050,21.88,73994.0,5.79,-13.73,-4.89,0,*45
1498496692.57,41051,21.88,73994.3,5.79,-13.37,-4.69,0,*4A
1498496693.76,41052,21.88,73990.3,5.79,-12.93,-4.41,0,*4C
1498496694.97,41053,21.88,73988.5,5.79,-12.61,-4.33,0,*45
1498496696.18,41054,21.94,73992.3,5.79,-11.89,-4.05,0,*42
1498496697.37,41055,21.88,73988.8,5.79,-11.15,-3.91,0,*4C
1498496698.58,41056,21.88,73990.5,5.77,-10.85,-4.09,0,*4F
1498496699.79,41057,21.88,73990.3,5.77,-10.31,-4.33,0,*48
1498496700.99,41058,21.94,73990.5,5.77,-9.89,-4.57,0,*7E
1498496702.23,41059,21.88,73986.5,5.77,-9.79,-4.93,0,*78
1498496703.43,41060,21.88,73986.0,5.75,-9.83,-5.51,0,*7A
1498496704.65,41061,21.88,73988.5,5.75,-9.79,-5.89,0,*7B
1498496705.85,41062,21.88,73990.3,5.75,-9.83,-6.43,0,*78
1498496707.05,41063,21.88,73988.3,5.75,-10.23,-6.81,0,*45
1498496708.25,41064,21.88,73990.3,5.75,-10.53,-7.01,0,*4C
1498496709.44,41065,21.88,73986.3,5.75,-10.89,-7.15,0,*4F
1498496710.65,41066,21.88,73986.3,5.75,-11.19,-6.97,0,*4F
1498496711.89,41067,21.88,73986.0,5.77,-11.59,-6.77,0,*46
1498496713.13,41068,21.94,73990.3,5.73,-11.89,-6.69,0,*4F
1498496714.32,41069,21.88,73988.3,5.75,-12.21,-6.43,0,*41
1498496715.56,41070,21.88,73986.0,5.73,-12.57,-6.05,0,*4C
1498496716.78,41071,21.88,73980.0,5.71,-12.75,-5.55,0,*49
1498496718.02,41072,21.88,73980.5,5.73,-12.89,-4.89,0,*4B
1498496719.24,41073,21.88,73984.3,5.71,-13.01,-4.37,0,*4C
1498496720.42,41074,21.94,73990.8,5.71,-13.11,-3.75,0,*4B
1498496721.64,41075,21.88,73984.3,5.71,-13.01,-2.99,0,*48
1498496722.85,41076,21.88,73990.5,5.71,-12.53,-2.27,0,*48
1498496724.06,41077,21.88,73990.0,5.71,-11.89,-1.59,0,*47
1498496725.27,41078,21.88,73992.3,5.71,-10.97,-1.13,0,*48
1498496726.44,41079,21.88,73988.8,5.71,-9.97,-0.77,0,*42
1498496727.65,41080,21.88,73984.0,5.73,-8.75,-0.57,0,*49
1498496728.85,41081,21.88,73990.8,5.71,-7.95,-0.53,0,*4F
1498496730.03,41082,21.88,73988.3,5.71,-7.19,-0.77,0,*4E
1498496731.23,41083,21.88,73984.3,5.71,-6.73,-1.13,0,*71
1498496732.46,41084,21.88,73986.0,5.71,-6.23,-1.35,0,*77
1498496733.67,41085,21.88,73986.8,5.71,-5.93,-1.75,0,*7A
1498496734.89,41086,21.94,73984.5,5.71,-5.93,-2.15,0,*7C
1498496736.1,41087,21.88,73978.3,5.71,-5.85,-2.39,0,*74
1498496737.31,41088,21.88,73978.3,5.73,-6.09,-2.83,0,*7F
1498496738.54,41089,21.88,73980.0,5.73,-6.23,-3.11,0,*7C
1498496739.72,41090,21.88,73980.0,5.71,-6.77,-3.75,0,*75
1498496740.96,41091,21.88,73980.3,5.73,-7.35,-4.13,0,*76
1498496742.17,41092,21.88,73980.8,5.71,-8.11,-4.37,0,*78
1498496743.38,41093,21.88,73976.0,5.73,-8.89,-4.41,0,*7B
1498496744.56,41094,21.88,73976.3,5.71,-9.71,-4.45,0,*7C
1498496745.77,41095,21.88,73978.5,5.73,-10.09,-4.37,0,*4D
1498496746.98,41096,21.88,73980.0,5.73,-10.53,-4.25,0,*42
1498496748.2,41097,21.88,73978.3,5.73,-11.15,-4.21,0,*44
1498496749.44,41098,21.88,73976.8,5.73,-11.37,-4.13,0,*4A
1498496750.67,41099,21.88,73980.8,5.73,-11.73,-4.13,0,*4B
1498496751.91,41100,21.88,73980.3,5.73,-11.77,-3.95,0,*47
1498496753.15,41101,21.88,73976.5,5.73,-11.63,-3.83,0,*44
1498496754.38,41102,21.88,73976.5,5.75,-11.59,-3.63,0,*46
1498496755.59,41103,21.88,73982.0,5.75,-11.33,-3.31,0,*4C
1498496756.78,41104,21.88,73982.5,5.75,-11.01,-3.19,0,*40
1498496758.0,41105,21.88,73982.5,5.75,-10.31,-2.75,0,*48
1498496759.23,41106,21.88,73980.3,5.75,-9.57,-2.67,0,*70
1498496760.44,41107,21.88,73980.0,5.77,-8.93,-2.91,0,*73
1498496761.64,41108,21.88,73980.3,5.75,-8.45,-3.43,0,*7B
1498496762.83,41109,21.88,73986.0,5.75,-8.21,-4.09,0,*71
1498496764.01,41110,21.88,73986.5,5.75,-8.25,-4.61,0,*73
1498496765.25,41111,21.88,73990.8,5.77,-8.37,-5.19,0,*7D
1498496766.46,41112,21.88,73988.3,5.75,-8.75,-5.77,0,*72
1498496767.69,41113,21.88,73984.0,5.77,-9.11,-6.05,0,*74
1498496768.9,41114,21.88,73986.8,5.75,-9.61,-6.31,0,*71
1498496770.14,41115,21.88,73992.0,5.77,-10.19,-6.63,0,*42
1498496771.4,41116,21.88,73988.5,5.77,-10.71,-7.05,0,*4E
1498496772.67,41117,21.88,73986.0,5.77,-11.59,-7.61,0,*46
1498496773.91,41118,21.88,73988.8,5.75,-11.85,-7.73,0,*49
1498496775.17,41119,21.88,73982.3,5.77,-12.15,-7.91,0,*4C
1498496776.39,41120,21.88,73982.8,5.75,-12.71,-8.17,0,*47
1498496777.64,41121,21.88,73988.0,5.77,-12.83,-8.03,0,*4C
1498496778.87,41122,21.88,73986.3,5.77,-13.15,-8.03,0,*41
1498496780.09,41123,21.88,73978.0,5.75,-13.47,-8.07,0,*41
1498496781.33,41124,21.88,73974.8,5.75,-13.61,-8.07,0,*42
1498496782.54,41125,21.88,73976.8,5.73,-13.93,-8.41,0,*4A
1498496783.76,41126,21.94,73980.0,5.73,-14.15,-8.41,0,*40
1498496784.96,41127,21.88,73982.0,5.73,-14.69,-8.63,0,*4A
1498496786.18,41128,21.88,73968.3,5.73,-14.89,-8.45,0,*4F
1498496787.38,41129,21.88,73968.5,5.71,-15.43,-8.67,0,*4B
1498496788.56,41130,21.88,73970.3,5.71,-15.49,-8.25,0,*4F
1498496789.8,41131,21.88,73978.0,5.71,-15.39,-8.07,0,*49
1498496790.99,41132,21.88,73974.3,5.71,-15.63,-7.87,0,*42
1498496792.22,41133,21.88,73978.3,5.73,-15.57,-7.53,0,*4F
1498496793.46,41134,21.88,73974.5,5.73,-15.95,-7.77,0,*40
1498496794.73,41135,21.88,73978.8,5.73,-16.09,-7.73,0,*43
1498496795.94,41136,21.88,73980.0,5.71,-15.99,-7.43,0,*4B
1498496797.19,41137,21.88,73976.8,5.71,-16.09,-7.43,0,*40
1498496798.4,41138,21.88,73988.8,5.71,-15.95,-7.39,0,*44
1498496799.64,41139,21.88,73984.3,5.71,-16.13,-7.43,0,*45
1498496800.91,41140,21.88,73984.3,5.69,-16.51,-7.65,0,*40
1498496802.17,41141,21.94,73980.8,5.69,-16.23,-7.27,0,*42
1498496803.37,41142,21.88,73978.5,5.67,-15.99,-7.05,0,*4D
1498496804.56,41143,21.88,73980.3,5.67,-15.71,-6.89,0,*4F
1498496805.79,41144,21.88,73978.5,5.69,-15.39,-6.39,0,*41
1498496807.02,41145,21.88,73982.0,5.69,-14.93,-6.05,0,*4E
1498496808.23,41146,21.88,73976.8,5.67,-14.97,-6.01,0,*43
1498496809.46,41147,21.88,73976.0,5.69,-14.79,-5.97,0,*40
1498496810.69,41148,21.88,73976.8,5.69,-14.65,-5.81,0,*45
1498496811.88,41149,21.88,73976.3,5.71,-14.89,-6.05,0,*40
1498496813.11,41150,21.88,73982.8,5.69,-14.79,-5.97,0,*46
1498496814.35,41151,21.88,73980.0,5.69,-14.65,-5.85,0,*49
1498496815.56,41152,21.88,73976.8,5.67,-14.65,-5.77,0,*49
1498496816.82,41153,21.88,73988.8,5.69,-14.75,-5.69,0,*48
1498496818.06,41154,21.88,73986.8,5.67,-14.83,-5.73,0,*43
1498496819.25,41155,21.88,73980.0,5.67,-14.89,-5.35,0,*4A
1498496820.49,41156,21.88,73978.5,5.69,-14.65,-5.07,0,*44
1498496821.75,41157,21.94,73976.3,5.69,-14.51,-4.77,0,*44
1498496822.97,41158,21.88,73982.5,5.69,-14.37,-4.41,0,*4E
1498496824.18,41159,21.88,73976.0,5.69,-14.33,-4.17,0,*48
1498496825.42,41160,21.88,73982.0,5.69,-14.05,-3.87,0,*49
1498496826.67,41161,21.88,73982.0,5.69,-13.79,-3.67,0,*4A
1498496827.91,41162,21.88,73984.0,5.69,-13.37,-3.27,0,*47
1498496829.13,41163,21.88,73984.3,5.69,-13.19,-3.03,0,*4C
1498496830.37,41164,21.88,73986.0,5.73,-12.75,-2.83,0,*42
1498496831.61,41165,21.88,73984.8,5.71,-12.53,-2.59,0,*42
1498496832.82,41166,21.88,73986.3,5.71,-12.39,-2.47,0,*42
1498496834.03,41167,21.88,73990.5,5.71,-12.07,-2.15,0,*49
1498496835.29,41168,21.88,73984.0,5.69,-11.81,-1.87,0,*4A
1498496836.5,41169,21.88,73986.8,5.69,-11.11,-1.29,0,*46
1498496837.73,41170,21.88,73982.5,5.69,-10.57,-0.97,0,*79
1498496838.96,41171,21.88,73982.8,5.69,-10.23,-0.85,0,*78
1498496840.17,41172,21.88,73976.8,5.69,-9.31,-0.33,0,*4D
1498496841.36,41173,21.88,73980.3,5.69,-8.59,0.01,0,*5F
1498496842.61,41174,21.88,73986.5,5.69,-8.07,0.13,0,*60
1498496843.8,41175,21.88,73984.5,5.71,-7.53,0.13,0,*66
1498496845.02,41176,21.88,73984.5,5.71,-7.05,0.13,0,*66
1498496846.19,41177,21.88,73984.3,5.71,-6.73,0.09,0,*5C
1498496847.38,41178,21.88,73980.5,5.71,-6.27,0.09,0,*52
1498496848.6,41179,21.88,73992.3,5.73,-5.89,0.01,0,*5E
1498496849.8,41180,21.88,73986.0,5.71,-5.61,-0.15,0,*44
1498496851.03,41181,21.88,73988.3,5.73,-5.03,-0.07,0,*70
1498496852.24,41182,21.88,73990.5,5.73,-4.53,-0.11,0,*40
1498496853.45,41183,21.88,73988.0,5.73,-4.33,-0.49,0,*4A
1498496854.63,41184,21.88,73994.0,5.71,-4.09,-0.49,0,*46
1498496855.86,41185,21.88,73990.8,5.73,-3.71,-0.69,0,*4F
1498496857.09,41186,21.88,73994.5,5.73,-3.55,-0.73,0,*41
1498496858.32,41187,21.88,73992.0,5.73,-3.55,-0.73,0,*40
1498496859.54,41188,21.88,73996.0,5.71,-3.63,-0.89,0,*4D
1498496860.8,41189,21.88,73992.8,5.73,-3.63,-0.97,0,*41
1498496862.01,41190,21.88,73992.8,5.73,-3.75,-1.17,0,*77
1498496863.23,41191,21.88,73992.8,5.73,-3.83,-1.21,0,*7A
1498496864.46,41192,21.88,73992.5,5.73,-3.71,-1.25,0,*70
1498496865.72,41193,21.88,73992.3,5.73,-3.71,-1.43,0,*71
1498496866.98,41194,21.94,73998.0,5.73,-3.63,-1.47,0,*71
1498496868.17,41195,21.88,73996.5,5.75,-3.35,-1.67,0,*77
1498496869.38,41196,21.88,73996.0,5.75,-3.11,-1.95,0,*7F
1498496870.6,41197,21.88,73998.8,5.75,-2.95,-2.07,0,*7B
1498496871.78,41198,21.88,73994.8,5.75,-2.87,-2.35,0,*76
1498496872.99,41199,21.88,73998.8,5.75,-2.87,-2.47,0,*72
1498496874.22,41200,21.88,74000.5,5.77,-2.83,-2.55,0,*74
1498496875.43,41201,21.88,74000.8,5.77,-2.83,-2.39,0,*7F
1498496876.66,41202,21.88,73996.8,5.77,-2.79,-2.71,0,*75
1498496877.92,41203,21.88,74002.5,5.77,-2.71,-3.59,0,*77
1498496879.15,41204,21.88,74004.0,5.77,-2.91,-4.81,0,*7C
1498496880.35,41205,21.88,74000.8,5.75,-3.75,-6.31,0,*7D
1498496881.58,41206,21.88,74000.0,5.77,-4.61,-7.43,0,*7A
1498496882.79,41207,21.88,74002.5,5.77,-6.39,-8.37,0,*78
1498496884.0,41208,21.88,74006.0,5.75,-7.77,-8.41,0,*7F
1498496885.23,41209,21.88,74002.3,5.77,-8.81,-7.87,0,*7F
1498496886.45,41210,21.88,73998.8,5.75,-9.15,-7.15,0,*72
1498496887.67,41211,21.88,74002.5,5.77,-9.31,-7.05,0,*76
1498496888.88,41212,21.88,74004.3,5.77,-9.79,-7.87,0,*73
1498496890.1,41213,21.88,74000.3,5.77,-10.97,-8.71,0,*4C
1498496891.31,41214,21.88,73996.3,5.77,-12.29,-8.97,0,*44
1498496892.53,41215,21.88,74002.5,5.77,-13.51,-9.05,0,*41
1498496893.75,41216,21.88,74002.0,5.75,-14.05,-8.75,0,*40
1498496894.99,41217,21.88,74000.0,5.77,-14.43,-8.41,0,*46
1498496896.16,41218,21.94,74000.8,5.75,-15.07,-8.55,0,*4F
1498496897.38,41219,21.88,73996.0,5.75,-15.43,-8.21,0,*4D
1498496898.59,41220,21.88,74000.0,5.75,-15.57,-7.83,0,*45
1498496899.81,41221,21.88,73998.0,5.73,-15.63,-7.49,0,*43
1498496901.07,41222,21.88,73996.5,5.73,-16.09,-7.39,0,*48
1498496902.34,41223,21.88,73996.5,5.73,-16.51,-7.27,0,*4B
1498496903.6,41224,21.88,73998.0,5.73,-16.51,-6.97,0,*46
1498496904.8,41225,21.88,73998.5,5.71,-16.51,-6.69,0,*44
1498496906.04,41226,21.88,74000.0,5.73,-16.51,-6.43,0,*4D
1498496907.25,41227,21.88,73998.8,5.71,-16.51,-6.13,0,*4B